Paducah, KY

8:51 AM CDT on October 19, 2017 (GMT -0500)
Barkley Regional

Weather History for KPAH - January, 2013

Change the Weather History Date:

Tuesday, January 1, 2013

  Actual Average Record
Temperature  
Mean Temperature 30 °F 35 °F  
Max Temperature 37 °F 43 °F 69 °F (1965)
Min Temperature 22 °F 26 °F -2 °F (1968)
Degree Days  
Heating Degree Days 35 30  
Month to date heating degree days 35 30  
Since 1 July heating degree days 1562 1661  
Cooling Degree Days 0 0  
Month to date cooling degree days 0 0  
Year to date cooling degree days 0 0  
Moisture  
Dew Point 29 °F    
Average Humidity 87    
Maximum Humidity 100    
Minimum Humidity 74    
Precipitation  
Precipitation T in 0.12 in 3.40 in (1966)
Month to date precipitation T 0.12  
Year to date precipitation T 0.12  
Snow  
Snow T in 0.10 in 0.50 in (1979)
Month to date snowfall T 0.1  
Since 1 July snowfall 5.7 2.4  
Snow Depth 0.00 in    
Sea Level Pressure  
Sea Level Pressure 30.14 in    
Wind  
Wind Speed 9 mph (North)    
Max Wind Speed 16 mph    
Max Gust Speed 18 mph    
Visibility 5 miles    
Events      
T = Trace of Precipitation, MM = Missing Value Source: NWS Daily Summary

Daily Weather History Graph

Daily Weather History Graph

Search for Another Location

Airport or City:

Trip Planner

Search our weather history database for the weather conditions in past years. The results will help you decide how hot, cold, wet, or windy it might be!

Date:

Astronomy

Jan. 01, 2013 Rise Set
Actual Time 7:08 AM CST 4:49 PM CST
Civil Twilight 6:39 AM CST 5:18 PM CST
Nautical Twilight 6:07 AM CST 5:50 PM CST
Astronomical Twilight 5:35 AM CST 6:22 PM CST
Moon 9:13 PM CST (1/1) 9:26 AM CST (1/1)
Length of Visible Light 10h 38m
Length of Day
9h 40m
Waning Gibbous, 83% of the Moon is Illuminated
Jan 1
Waning Gibbous
Jan 4
Last Quarter
Jan 11
New
Jan 18
First Quarter
Jan 26
Full

Hourly Weather History & Observations

Time (CST) Temp. Windchill Dew Point Humidity Pressure Visibility Wind Dir Wind Speed Gust Speed Precip Events Conditions
12:53 AM 36.0 °F 31.1 °F 35.1 °F 97% 30.05 in 1.2 mi NNE 5.8 mph - N/A   Overcast
1:53 AM 36.0 °F 32.1 °F 35.1 °F 97% 30.06 in 1.5 mi NE 4.6 mph - N/A   Overcast
2:53 AM 36.0 °F 31.1 °F 35.1 °F 97% 30.08 in 1.8 mi NNE 5.8 mph - N/A   Overcast
3:43 AM 35.6 °F 32.8 °F 35.6 °F 100% 30.08 in 2.5 mi NNE 3.5 mph - N/A   Overcast
3:51 AM 35.6 °F 31.7 °F 35.6 °F 100% 30.07 in 3.0 mi NNE 4.6 mph - N/A   Overcast
3:53 AM 36.0 °F 33.3 °F 35.1 °F 97% 30.08 in 3.0 mi NNE 3.5 mph - N/A   Overcast
4:53 AM 35.6 °F 29.2 °F 33.8 °F 93% 30.07 in 7.0 mi NNE 8.1 mph - N/A   Overcast
5:03 AM 35.6 °F 28.0 °F 33.8 °F 93% 30.07 in 6.0 mi NNE 10.4 mph - N/A   Overcast
5:35 AM 35.6 °F 28.0 °F 33.8 °F 93% 30.09 in 3.0 mi North 10.4 mph - N/A   Overcast
5:48 AM 33.8 °F 25.8 °F 33.8 °F 100% 30.09 in 2.0 mi NNE 10.4 mph - N/A   Overcast
5:53 AM 34.0 °F 26.0 °F 33.1 °F 96% 30.09 in 1.8 mi NNE 10.4 mph - N/A   Overcast
6:11 AM 33.8 °F 26.4 °F 33.8 °F 100% 30.10 in 3.0 mi NNE 9.2 mph - N/A   Overcast
6:53 AM 34.0 °F 25.5 °F 33.1 °F 96% 30.10 in 4.0 mi NNE 11.5 mph - N/A   Overcast
7:53 AM 34.0 °F 28.0 °F 33.1 °F 96% 30.11 in 5.0 mi NE 6.9 mph - N/A   Overcast
8:05 AM 33.8 °F 27.0 °F 33.8 °F 100% 30.10 in 5.0 mi NE 8.1 mph - N/A   Overcast
8:53 AM 34.0 °F 26.0 °F 33.1 °F 96% 30.14 in 6.0 mi NNE 10.4 mph - N/A   Overcast
9:53 AM 34.0 °F 26.0 °F 32.0 °F 92% 30.14 in 6.0 mi NNE 10.4 mph - N/A   Overcast
10:53 AM 35.1 °F 28.6 °F 32.0 °F 89% 30.14 in 7.0 mi NE 8.1 mph - N/A   Overcast
11:53 AM 35.1 °F 29.3 °F 33.1 °F 92% 30.16 in 6.0 mi North 6.9 mph - N/A   Overcast
12:39 PM 33.8 °F 25.3 °F 30.2 °F 87% 30.13 in 6.0 mi North 11.5 mph - N/A   Overcast
12:53 PM 33.1 °F 23.9 °F 30.0 °F 89% 30.13 in 5.0 mi North 12.7 mph - N/A   Overcast
1:24 PM 30.2 °F 19.8 °F 28.4 °F 93% 30.11 in 2.5 mi North 13.8 mph - N/A   Overcast
1:53 PM 30.9 °F 21.2 °F 28.9 °F 92% 30.11 in 2.5 mi North 12.7 mph - N/A   Overcast
2:22 PM 30.2 °F 20.2 °F 28.4 °F 93% 30.11 in 3.0 mi North 12.7 mph - N/A   Overcast
2:53 PM 30.9 °F 22.8 °F 27.0 °F 85% 30.13 in 4.0 mi North 9.2 mph - N/A   Overcast
3:06 PM 30.2 °F 20.8 °F 26.6 °F 86% 30.13 in 4.0 mi North 11.5 mph - N/A   Haze
3:53 PM 30.0 °F 20.5 °F 24.1 °F 79% 30.15 in 6.0 mi NNW 11.5 mph - N/A   Haze
4:53 PM 28.0 °F 18.6 °F 23.0 °F 81% 30.18 in 6.0 mi NNW 10.4 mph - N/A   Haze
5:53 PM 28.0 °F 20.0 °F 21.9 °F 78% 30.19 in 6.0 mi North 8.1 mph - N/A   Haze
6:53 PM 27.0 °F 17.3 °F 21.9 °F 81% 30.22 in 6.0 mi NNW 10.4 mph - N/A   Haze
7:28 PM 26.6 °F 16.8 °F 21.2 °F 80% 30.20 in 6.0 mi North 10.4 mph - N/A   Haze
7:53 PM 26.1 °F 16.2 °F 21.0 °F 81% 30.23 in 6.0 mi North 10.4 mph - N/A   Haze
8:27 PM 26.6 °F 16.8 °F 19.4 °F 74% 30.21 in 6.0 mi North 10.4 mph - N/A   Haze
8:53 PM 25.0 °F 16.3 °F 19.9 °F 81% 30.22 in 6.0 mi North 8.1 mph - N/A   Haze
9:53 PM 24.1 °F 16.0 °F 19.0 °F 81% 30.24 in 6.0 mi North 6.9 mph - N/A   Haze
10:53 PM 24.1 °F 15.2 °F 18.0 °F 77% 30.25 in 7.0 mi North 8.1 mph - N/A   Clear
11:53 PM 23.0 °F 15.8 °F 18.0 °F 81% 30.25 in 7.0 mi North 5.8 mph - N/A   Clear